Вернуться в каталог

DELTA 1 DEB

АктивенUNKNOWN
NORAD 9702·DEBRIS·🇺🇸 United States

Запущен Nov 6, 1973 с Vandenberg Space Force Base

Loading…

Ближайшие Пролёты (ближайшие 24 часа)

TLE

СвежийSource: Space-Track

Эпоха: Sep 14, 2026, 07:01 UTC

1 09702U 73086GA  26257.29236546  .00000397  00000-0  60244-2 0  9998
2 09702 103.0668 180.1742 0694543  95.3476  49.9517 11.43024341200765

Отслеживайте DELTA 1 DEB в реальном времени с AllMySat

Download on the App Store